RH
48 50 50 53 57 60 62 60 69 76 83 91 88 88 85 82 80 80 77 73 76 76 81 84 86 86 93 90 92 95 92 94 81 79 73 69 63 62 66 63 63 60 63
57 52 54 56 63 58 60 67 74 78 85 87 85 84 83 82 77 76 77 77 73 79 82 84 86 87 91 92 95 94 92 90 86 85 82 75 62 64 61 61 68 63 68
69 62 53 58 64 69 67 66 76 83 84 87 87 86 86 90 90 89 88 86 80 77 82 80 84 87 88 91 92 93 93 91 94 83 76 85 76 70 70 69 67 68 78
77 76 65 64 71 74 80 81 83 86 86 89 92 88 90 90 88 86 82 80 74 77 79 80 83 87 90 89 92 93 92 92 94 93 83 83 77 82 76 75 74 77 77
89 84 77 87 94 91 94 91 90 89 87 88 90 95 95 95 88 88 86 85 80 78 82 82 85 90 93 86 82 90 93 93 89 89 94 84 88 82 85 83 84 84 86
93 91 88 87 87 86 86 88 88 86 85 90 94 96 95 92 93 91 92 89 91 92 88 91 91 94 89 91 93 94 95 93 92 86 79 78 82 88 86 82 81 84 89
92 92 91 92 89 86 87 86 88 88 86 91 93 91 91 92 95 94 98 98 98 99 98 93 96 94 91 92 98 97 96 96 92 87 83 81 83 85 84 87 87 95 96
89 92 93 92 93 89 89 91 91 94 92 93 93 91 94 97 98 98 96 99 99 99 98 99 99 99 97 97 99 99 98 98 98 96 88 89 93 94 94 91 95 99 98
90 87 89 89 90 92 91 94 90 85 89 89 91 94 93 93 96 95 95 97 98 99 99 98 99 99 99 99 99 99 99 99 98 96 96 95 91 94 95 96 97 94 94
81 77 77 72 67 73 79 87 86 84 80 90 87 89 86 84 80 80 83 82 88 86 90 94 98 99 99 99 99 99 99 98 96 97 98 97 95 96 97 97 96 95 94
54 61 60 56 58 57 58 69 70 72 73 66 77 80 78 74 70 71 68 71 70 76 70 75 83 87 94 98 98 98 96 97 94 94 94 93 91 93 94 95 94 95 96
52 58 62 60 61 59 60 60 62 61 62 62 64 64 64 62 63 63 64 61 66 62 62 64 66 69 77 88 92 93 94 97 94 89 89 89 87 92 88 92 94 94 92
52 60 65 66 67 64 63 62 64 66 66 65 65 66 66 66 67 66 66 67 67 66 63 66 66 65 66 67 70 82 91 93 92 94 95 94 94 92 90 92 93 92 95
55 61 66 72 74 70 69 69 68 69 69 70 73 71 70 70 70 68 67 67 68 70 69 69 69 70 69 67 66 68 70 72 75 83 88 91 93 94 95 94 94 95 98
53 62 68 72 74 72 70 70 71 72 70 70 71 72 70 69 68 66 66 64 65 66 66 67 68 69 70 65 76 75 76 78 77 76 75 79 85 95 95 96 96 99 99
53 60 67 72 75 76 73 73 75 75 74 73 75 73 71 72 70 69 69 66 67 66 65 66 69 73 66 75 76 73 75 77 78 80 75 70 84 88 97 98 98 97 98
53 60 67 72 73 73 74 76 77 75 76 76 73 74 74 75 73 71 70 70 70 72 71 66 65 64 65 73 74 74 69 73 78 80 81 77 70 81 84 85 97 98 98
55 62 70 73 73 72 72 77 75 74 76 76 75 73 74 74 72 72 72 73 70 70 70 69 67 67 62 68 70 72 74 77 75 77 80 81 79 75 82 92 98 98 98
55 64 70 72 72 72 73 79 76 76 77 77 74 72 72 72 71 74 75 75 74 74 73 68 71 71 68 69 68 66 68 72 72 65 67 72 74 74 81 94 98 98 97
65 72 74 74 75 73 76 81 76 77 79 76 75 74 72 72 70 71 72 73 72 71 70 68 64 66 63 67 69 65 63 68 72 74 72 77 79 81 85 89 96 98 97
69 74 76 73 74 75 79 79 77 79 79 77 77 74 72 72 68 71 71 74 74 70 68 64 59 58 59 59 69 68 63 66 70 75 77 75 80 85 85 89 92 97 94
74 81 79 78 74 79 81 77 80 78 80 77 78 75 72 64 66 72 71 70 66 64 63 63 63 60 59 67 69 72 71 69 70 70 69 72 85 91 88 89 91 95 95
74 79 80 76 77 79 81 78 79 80 79 81 81 77 71 66 64 69 71 72 66 68 66 66 72 71 68 66 72 76 76 72 68 64 71 79 88 90 92 90 89 95 98
73 76 78 78 77 81 78 80 81 82 82 84 81 70 66 66 66 65 66 71 70 72 70 79 79 79 79 75 74 74 80 83 86 83 78 78 90 93 91 91 93 98 98
72 76 78 78 79 83 81 83 82 84 83 81 74 70 68 69 71 65 68 72 67 70 76 75 81 86 89 79 80 79 81 82 84 87 92 94 96 97 97 99 99 99 99
75 79 82 82 84 85 81 83 85 83 83 76 70 70 75 75 71 74 74 68 70 71 71 71 74 74 76 76 78 80 85 88 91 94 95 91 95 98 98 99 99 99 98
Wind_Speed
16 12 13 13 12 9 10 10 10 12 7 5 4 6 8 7 7 8 11 12 12 14 13 10 10 10 10 12 13 10 7 6 5 4 8 9 10 11 9 8 8 9 8
12 12 12 11 12 12 9 10 12 10 9 7 5 4 4 6 8 7 10 13 15 15 14 13 12 13 11 13 11 12 8 6 7 6 4 6 6 9 10 8 7 10 6
13 12 11 11 10 10 11 10 12 11 9 10 7 6 5 4 6 7 7 10 14 16 17 17 15 15 14 12 14 12 12 8 5 11 6 5 7 2 3 8 7 8 6
12 9 9 9 9 9 7 8 6 8 8 10 8 10 8 8 5 7 9 12 15 18 19 19 18 17 12 13 11 10 8 8 7 3 9 6 2 4 3 2 4 5 7
9 7 4 3 7 8 7 5 4 6 6 5 8 7 9 5 6 8 14 16 16 17 17 17 17 15 10 14 13 10 11 9 8 7 3 10 7 4 4 3 3 3 6
14 15 12 10 11 11 12 9 6 8 8 7 7 8 7 7 7 8 10 9 6 8 12 12 12 10 12 11 9 9 9 10 8 6 12 11 8 10 8 7 4 5 3
17 15 17 15 15 15 16 13 11 7 7 7 7 8 8 6 3 3 3 7 5 3 5 10 10 12 11 9 4 4 5 6 11 17 11 10 9 6 8 6 5 5 3
13 15 13 14 10 11 17 14 14 10 10 6 4 7 6 3 1 3 3 3 4 3 7 8 5 3 7 4 4 3 4 6 6 9 9 7 7 7 5 6 6 3 3
16 15 16 12 17 17 14 14 14 12 12 13 11 13 12 13 9 9 8 5 4 3 3 3 4 4 5 6 7 4 4 5 5 8 9 8 7 6 8 7 6 7 8
13 11 10 10 9 8 9 14 14 15 12 11 11 11 12 12 11 10 12 12 11 12 11 10 5 3 4 4 5 5 5 8 9 8 10 10 8 8 7 7 8 9 11
8 10 11 10 10 11 12 10 10 9 11 13 12 11 10 11 10 10 9 10 9 9 10 10 9 12 9 4 7 8 9 10 12 12 13 15 13 9 9 11 11 11 11
4 5 8 10 10 10 10 11 12 14 12 11 13 12 11 10 9 10 11 12 10 11 12 11 9 8 8 9 9 9 8 8 13 16 17 19 14 19 17 12 14 13 14
4 4 5 7 8 10 11 11 11 10 10 11 11 12 13 13 12 11 11 11 11 11 11 11 11 11 11 10 8 7 8 9 9 9 10 12 14 16 13 13 13 14 11
3 3 3 3 4 6 7 9 10 11 11 11 10 11 12 11 10 10 11 11 11 12 12 11 11 11 11 10 10 12 12 12 11 12 12 11 12 13 11 13 17 12 9
3 3 3 4 6 8 8 7 7 8 8 10 11 11 10 10 11 11 11 11 11 10 9 10 10 11 10 8 13 13 13 13 14 13 13 14 14 14 13 9 8 7 7
4 2 2 3 4 4 5 5 7 8 8 8 8 6 7 7 9 9 9 9 10 11 12 12 11 12 9 18 20 17 14 15 15 14 14 13 17 16 17 19 20 16 11
4 2 1 1 2 3 3 4 5 4 5 5 6 6 6 6 7 7 6 7 8 7 8 9 9 11 12 21 23 23 14 15 15 15 14 14 11 16 16 18 18 20 20
6 5 4 2 1 2 4 5 4 4 4 4 4 5 5 5 6 6 7 7 7 8 9 10 11 11 10 17 19 23 14 13 16 16 16 16 17 17 16 14 13 13 12
5 4 4 3 1 3 3 3 3 3 4 4 4 5 7 7 8 10 10 10 11 11 11 11 12 13 13 17 20 19 14 14 16 16 15 14 16 22 23 16 14 13 12
4 5 4 2 0 3 3 3 4 3 3 5 5 5 7 8 8 9 9 9 9 10 9 12 12 16 14 19 21 19 11 15 12 14 14 18 18 23 24 16 13 12 11
6 5 4 2 4 4 3 4 3 3 4 4 4 4 5 5 6 8 8 10 10 11 11 12 13 14 15 17 25 24 13 11 12 12 12 11 25 22 22 23 14 11 9
6 6 4 5 5 5 4 3 3 3 4 3 3 5 7 7 8 10 10 11 11 12 13 14 14 13 15 22 22 26 26 24 14 15 12 14 22 26 22 18 20 20 14
6 5 6 6 5 4 4 4 3 3 2 4 7 9 9 9 10 11 11 10 11 9 10 11 10 11 11 12 23 25 25 26 16 13 18 27 25 28 20 22 20 20 8
7 5 6 6 5 4 4 4 2 0 4 5 6 7 9 11 10 7 7 8 9 9 10 10 10 12 12 12 11 12 13 19 15 16 13 16 20 24 19 12 10 7 8
6 6 6 5 6 5 4 2 1 4 6 6 7 8 7 7 7 7 7 8 10 11 10 11 10 11 12 12 24 23 16 15 16 19 10 8 8 9 9 4 4 4 5
6 6 6 5 4 3 2 1 2 3 2 2 4 5 5 5 6 7 9 13 18 21 21 22 17 12 23 29 31 32 31 30 27 11 10 8 8 8 8 4 3 3 6
Wind_Direction
275 249 248 253 260 225 223 232 227 229 202 194 217 238 240 237 242 243 247 244 241 238 229 228 222 201 199 208 203 187 198 198 190 240 259 258 254 249 238 234 240 240 233
272 264 250 243 248 252 230 227 225 217 204 197 199 202 207 235 239 233 237 239 243 233 226 224 226 219 204 199 197 205 184 207 177 206 240 270 239 234 230 226 225 234 214
277 271 261 244 249 240 242 229 222 215 202 205 217 229 235 246 237 237 240 235 232 236 230 227 226 223 215 211 196 195 211 196 177 201 192 214 233 263 190 221 219 217 205
294 280 278 282 278 266 250 242 230 221 204 194 212 231 229 239 235 248 253 251 244 236 233 235 228 220 209 204 190 181 204 205 192 182 224 235 261 224 256 217 216 214 219
347 325 354 52 56 47 27 356 304 278 268 200 212 216 227 237 253 257 261 256 249 239 235 235 227 209 205 204 201 195 210 206 211 197 152 224 233 232 235 236 206 220 209
41 43 39 44 42 37 23 352 290 252 247 219 213 217 233 256 272 276 273 263 244 237 225 226 214 210 201 197 193 188 189 204 217 201 220 213 207 217 217 234 220 233 168
39 37 29 18 23 24 13 350 320 257 231 212 222 226 225 238 266 5 56 51 26 18 291 210 217 202 195 181 164 206 206 212 226 222 221 222 225 227 224 232 225 236 221
44 34 31 13 2 27 11 360 23 51 50 54 226 208 200 216 82 343 44 44 58 25 14 32 54 94 142 175 149 155 196 208 226 245 239 235 234 225 196 220 213 231 219
33 10 26 360 21 22 352 9 26 41 49 48 51 47 41 30 27 20 19 16 24 23 11 49 41 81 126 147 154 188 183 198 227 247 242 230 230 217 218 210 195 212 229
28 356 12 6 19 17 10 19 15 28 38 44 50 50 45 41 35 34 28 26 24 17 13 11 333 223 211 199 194 190 196 208 225 227 226 230 230 225 222 228 228 220 236
31 359 355 18 16 23 20 42 26 34 38 39 46 47 41 41 32 34 23 26 25 17 21 16 12 9 348 259 215 216 219 224 234 231 231 239 241 240 232 226 226 227 225
46 39 2 358 15 26 30 33 21 37 36 41 44 43 41 37 35 29 25 21 20 19 15 13 11 12 5 355 349 343 324 273 246 240 236 236 231 229 228 227 231 235 230
50 38 28 13 13 13 12 25 28 34 41 45 50 42 35 31 26 23 22 22 19 18 13 13 6 0 351 343 335 318 315 310 295 286 292 300 259 236 229 227 240 239 228
17 35 31 19 11 20 22 17 21 21 25 34 35 35 28 23 19 17 18 17 11 10 8 3 357 354 345 338 344 336 326 314 300 296 289 281 269 268 285 253 229 226 226
331 8 25 17 13 14 17 23 29 30 25 32 31 26 18 13 10 9 10 8 7 2 356 351 350 346 341 344 336 327 320 313 307 300 296 286 276 268 261 261 257 229 234
255 13 18 24 22 17 13 12 16 15 20 25 26 11 6 3 1 360 359 355 353 353 351 347 341 337 331 327 324 323 314 310 308 303 300 294 296 272 256 255 253 251 233
218 171 124 42 339 349 358 7 355 353 8 4 4 357 349 346 340 330 335 342 339 325 327 328 323 322 320 320 321 317 310 302 295 291 291 294 286 284 278 273 253 248 244
198 176 180 202 258 346 357 349 340 334 334 332 325 320 322 330 327 340 348 343 337 335 334 329 325 318 311 315 314 312 307 298 293 289 288 287 287 280 281 272 266 258 244
183 184 180 175 97 339 319 304 304 301 294 307 332 341 339 342 354 1 358 352 345 344 337 326 320 316 310 311 314 315 305 302 296 290 284 282 285 284 276 272 264 263 255
155 170 176 128 301 287 292 273 272 277 327 345 342 337 337 346 352 349 350 343 338 327 325 323 324 320 316 316 313 318 307 304 301 304 294 278 269 274 273 263 262 253 242
171 153 138 190 236 255 252 243 260 322 306 303 310 325 328 333 350 349 350 344 335 330 330 322 314 314 316 316 318 315 308 305 300 294 296 293 295 275 276 265 255 242 221
163 163 176 213 227 226 212 237 246 269 270 291 328 358 359 358 358 346 343 341 334 331 332 324 319 319 316 310 311 313 308 302 296 292 290 285 300 286 266 265 268 251 218
181 177 190 208 212 214 211 217 235 260 310 5 11 7 356 356 1 347 339 332 329 316 312 310 304 302 307 307 311 305 302 298 295 291 287 291 292 306 268 259 260 255 197
190 182 187 206 209 215 219 221 223 351 39 23 3 1 1 352 343 327 318 309 311 310 313 306 310 309 307 305 307 302 297 291 285 281 279 281 288 295 283 252 251 247 183
183 181 191 201 208 207 217 218 88 49 35 17 7 360 343 336 315 314 310 309 306 308 312 311 309 308 306 308 311 312 309 302 293 295 277 274 279 288 288 257 225 170 181
177 184 193 192 202 211 225 216 167 137 118 29 9 344 331 322 313 309 313 308 313 315 313 315 315 315 312 318 320 316 313 310 304 283 279 272 270 270 269 221 175 183 175